Погода в Корбе

Индия     22°20′48″N   82°42′17″E
темп.,
°C
ветер,
м/с
пор.,
м/с
влажн.,
%
обл.,
%
осадки,
мм/ч
давл.,
гПа
погр.,
м
14 апреля, ср
ср1423:30+26ссз33100 0.0 101023
02:30+25ссв22123 0.0 100815
05:30+24сз01125 0.0 100911
08:30+32ююв019100 0.0 1012392
11:30+39ююз329100 0.0 10103228
14:30+40юз226100 0.0 10065103
17:30+36ююз228100 0.0 100516
20:30+31юз3613100 0.0 1007116
15 апреля, чт
чт1523:30+25з22395 0.0 101017
02:30+23зсз0145100 0.0 100911
05:30+22ссз2251100 0.0 100918
08:30+31з4729100 0.0 1011686
11:30+37з5516100 0.0 10091863
14:30+39ю3210100 0.0 10054547
17:30+36ю4513100 0.0 1004782
20:30+26ю483936 0.0 1009148
16 апреля, пт
пт1623:30+24вюв2242100 0.0 100912
02:30+24юз114135 0.0 100713
05:30+22св11466 0.0 100911
08:30+31зюз34260 0.0 1010543
11:30+39зсз45120 0.0 10072912
14:30+41юв35874 0.0 10035033
17:30+39юз78922 0.0 1002859
20:30+30з341739 0.0 100654
17 апреля, сб
сб1723:30+27всв332146 0.0 100621
02:30+26ю002136 0.0 100611
05:30+26с112284 0.0 100812
08:30+34ююв221477 0.0 1009509
11:30+41юз2298 0.0 10084552
14:30+42юз34787 0.0 10045256
17:30+40зсз35947 0.0 1003648
20:30+32зсз331425 0.0 100617
18 апреля, вс
вс1823:30+29ссз331850 0.0 100724
02:30+29ссв231718 0.0 100753
05:30+27ссв332046 0.0 100826
08:30+36ссв46145 0.0 1010880
11:30+41сз561139 0.0 10084290
14:30+38ссз661574 0.1 1005840
17:30+37зюз45172 0.1 1004849
20:30+30ссв22233 0.0 100511